Location: *
(51.5000°N, 0.1100°W)
Time: 05:28:43
(UTC+00:00)

Cosmos 1455 - Pass Details

Date: 12 August 2024
Orbit: 432 x 446 km, 82.5° (Epoch: 07 September)

Event Time Altitude Azimuth Distance (km) Brightness Sun altitude
Exits shadow 02:51:24 - 152° (SSE) 2,398 5.4 -14.5°
Reaches altitude 10° 02:53:42 10° 135° (SE) 1,585 4.6 -14.3°
Maximum altitude 02:56:13 19° 88° (E) 1,139 4.5 -14.0°
Drops below altitude 10° 02:58:43 10° 42° (NE) 1,584 6.1 -13.7°
Sets 03:01:10 0° 24° (NNE) 2,456 7.1 -13.5°
